• In Hungary
  • List of Countries
  • For 7 days
  • Water Temperature
  • Satellite Maps
  • Weather Map
  • News
  • Weather Widgets
  • user-avatar
    Login

    Hourly Weather Nefedkino

    Today, 24 May, Thursday

    Time Temperature Precipitation Wind Pressure Humidity
    00:00 +15°C° 0 mm 2 mps 754 mmHg 87%
    01:00 +15°C° 0 mm 2 mps 753 mmHg 89%
    02:00 +15°C° 0 mm 2 mps 753 mmHg 91%
    03:00 +14°C° 0 mm 2 mps 753 mmHg 94%
    04:00 +15°C° 0 mm 2 mps 753 mmHg 90%
    05:00 +16°C° 0 mm 2 mps 753 mmHg 85%
    06:00 +16°C° 0 mm 2 mps 753 mmHg 81%
    07:00 +18°C° 0 mm 2 mps 753 mmHg 73%
    08:00 +19°C° 0 mm 2 mps 753 mmHg 66%
    09:00 +21°C° 0 mm 3 mps 753 mmHg 58%
    10:00 +21°C° 0 mm 3 mps 753 mmHg 54%
    11:00 +22°C° 0 mm 3 mps 753 mmHg 51%
    12:00 +24°C° 0 mm 3 mps 753 mmHg 47%
    13:00 +24°C° 0 mm 3 mps 753 mmHg 47%
    14:00 +24°C° 0 mm 3 mps 753 mmHg 46%
    15:00 +25°C° 0 mm 3 mps 752 mmHg 45%
    16:00 +22°C° 0.1 mm 3 mps 752 mmHg 52%
    17:00 +21°C° 0.1 mm 3 mps 752 mmHg 58%
    18:00 +20°C° 0.1 mm 3 mps 752 mmHg 64%
    19:00 +19°C° 0 mm 3 mps 752 mmHg 71%
    20:00 +17°C° 0 mm 3 mps 752 mmHg 77%
    21:00 +14°C° 0 mm 3 mps 752 mmHg 84%
    22:00 +13°C° 0 mm 3 mps 752 mmHg 83%
    23:00 +13°C° 0 mm 3 mps 752 mmHg 83%

    Tomorrow, 25 May, Friday

    Time Temperature Precipitation Wind Pressure Humidity
    00:00 +12°C° 0 mm 3 mps 752 mmHg 82%
    01:00 +11°C° 0 mm 4 mps 753 mmHg 75%
    02:00 +11°C° 0 mm 4 mps 753 mmHg 67%
    03:00 +10°C° 0 mm 4 mps 754 mmHg 59%
    04:00 +9°C° 0 mm 5 mps 754 mmHg 59%
    05:00 +8°C° 0 mm 5 mps 754 mmHg 59%
    06:00 +8°C° 0 mm 5 mps 754 mmHg 58%
    07:00 +9°C° 0 mm 6 mps 755 mmHg 53%
    08:00 +10°C° 0 mm 6 mps 755 mmHg 48%
    09:00 +11°C° 0 mm 6 mps 755 mmHg 43%
    10:00 +11°C° 0 mm 6 mps 755 mmHg 41%
    11:00 +13°C° 0 mm 6 mps 755 mmHg 39%
    12:00 +13°C° 0 mm 6 mps 756 mmHg 37%
    13:00 +13°C° 0 mm 6 mps 756 mmHg 37%
    14:00 +14°C° 0 mm 6 mps 756 mmHg 36%
    15:00 +14°C° 0 mm 6 mps 756 mmHg 36%
    16:00 +13°C° 0 mm 6 mps 757 mmHg 38%
    17:00 +13°C° 0 mm 5 mps 757 mmHg 40%
    18:00 +12°C° 0 mm 5 mps 757 mmHg 42%
    19:00 +11°C° 0 mm 4 mps 758 mmHg 46%
    20:00 +9°C° 0 mm 3 mps 758 mmHg 50%
    21:00 +8°C° 0 mm 3 mps 759 mmHg 55%
    22:00 +7°C° 0 mm 3 mps 759 mmHg 57%
    23:00 +6°C° 0 mm 2 mps 760 mmHg 59%

    Day after tomorrow, 26 May, Saturday

    Time Temperature Precipitation Wind Pressure Humidity
    00:00 +5°C° 0 mm 2 mps 760 mmHg 61%
    01:00 +5°C° 0 mm 2 mps 760 mmHg 62%
    02:00 +4°C° 0 mm 2 mps 761 mmHg 63%
    03:00 +4°C° 0 mm 2 mps 761 mmHg 64%
    04:00 +5°C° 0 mm 2 mps 762 mmHg 61%
    05:00 +6°C° 0 mm 2 mps 762 mmHg 58%
    06:00 +8°C° 0 mm 2 mps 763 mmHg 55%
    07:00 +10°C° 0 mm 2 mps 763 mmHg 49%
    08:00 +13°C° 0 mm 2 mps 763 mmHg 44%
    09:00 +13°C° 0 mm 3 mps 763 mmHg 38%
    10:00 +16°C° 0 mm 3 mps 763 mmHg 37%
    11:00 +17°C° 0 mm 3 mps 763 mmHg 36%
    12:00 +18°C° 0 mm 3 mps 762 mmHg 35%
    13:00 +19°C° 0 mm 3 mps 762 mmHg 35%
    14:00 +19°C° 0 mm 4 mps 762 mmHg 35%
    15:00 +20°C° 0 mm 4 mps 761 mmHg 36%
    16:00 +20°C° 0 mm 3 mps 761 mmHg 40%
    17:00 +20°C° 0 mm 3 mps 760 mmHg 44%
    18:00 +19°C° 0 mm 3 mps 760 mmHg 48%
    19:00 +17°C° 0 mm 3 mps 760 mmHg 53%
    20:00 +16°C° 0 mm 3 mps 760 mmHg 59%
    21:00 +13°C° 0 mm 3 mps 760 mmHg 64%
    22:00 +12°C° 0 mm 3 mps 760 mmHg 66%
    23:00 +12°C° 0 mm 4 mps 760 mmHg 68%

    27 May, Sunday

    Time Temperature Precipitation Wind Pressure Humidity
    00:00 +12°C° 0 mm 4 mps 760 mmHg 70%
    01:00 +11°C° 0 mm 4 mps 759 mmHg 72%
    02:00 +11°C° 0 mm 4 mps 759 mmHg 75%
    03:00 +11°C° 0 mm 4 mps 759 mmHg 78%
    04:00 +12°C° 0 mm 4 mps 759 mmHg 76%
    05:00 +13°C° 0 mm 5 mps 759 mmHg 74%
    06:00 +13°C° 0 mm 5 mps 758 mmHg 72%
    07:00 +15°C° 0 mm 6 mps 758 mmHg 67%
    08:00 +17°C° 0 mm 6 mps 757 mmHg 61%
    09:00 +20°C° 0 mm 7 mps 757 mmHg 55%
    10:00 +21°C° 0 mm 7 mps 756 mmHg 52%
    11:00 +22°C° 0 mm 7 mps 756 mmHg 50%
    12:00 +22°C° 0 mm 7 mps 755 mmHg 47%
    13:00 +23°C° 0 mm 7 mps 755 mmHg 46%
    14:00 +23°C° 0 mm 7 mps 755 mmHg 45%
    15:00 +23°C° 0 mm 7 mps 754 mmHg 43%
    16:00 +22°C° 0.1 mm 6 mps 754 mmHg 49%
    17:00 +20°C° 0.1 mm 6 mps 754 mmHg 54%
    18:00 +19°C° 0.1 mm 5 mps 754 mmHg 60%
    19:00 +16°C° 1.7 mm 5 mps 754 mmHg 70%
    20:00 +14°C° 1.7 mm 4 mps 754 mmHg 81%
    21:00 +12°C° 1.7 mm 3 mps 754 mmHg 92%
    22:00 +12°C° 1.1 mm 3 mps 754 mmHg 92%
    23:00 +11°C° 1.1 mm 3 mps 754 mmHg 91%

    28 May, Monday

    Time Temperature Precipitation Wind Pressure Humidity
    00:00 +10°C° 1.1 mm 2 mps 755 mmHg 91%
    01:00 +9°C° 0 mm 2 mps 755 mmHg 90%
    02:00 +8°C° 0 mm 2 mps 755 mmHg 90%
    03:00 +7°C° 0 mm 2 mps 756 mmHg 90%
    04:00 +8°C° 0 mm 3 mps 756 mmHg 85%
    05:00 +7°C° 0 mm 4 mps 757 mmHg 81%
    06:00 +7°C° 0 mm 4 mps 757 mmHg 76%
    07:00 +8°C° 0 mm 5 mps 757 mmHg 67%
    08:00 +9°C° 0 mm 6 mps 757 mmHg 58%
    09:00 +10°C° 0 mm 6 mps 758 mmHg 49%
    10:00 +10°C° 0 mm 6 mps 758 mmHg 45%
    11:00 +11°C° 0 mm 6 mps 758 mmHg 42%
    12:00 +13°C° 0 mm 6 mps 758 mmHg 38%
    13:00 +13°C° 0 mm 6 mps 758 mmHg 39%
    14:00 +13°C° 0 mm 6 mps 758 mmHg 40%
    15:00 +13°C° 0 mm 5 mps 758 mmHg 41%
    16:00 +13°C° 0 mm 5 mps 758 mmHg 43%
    17:00 +13°C° 0 mm 4 mps 758 mmHg 46%
    18:00 +13°C° 0 mm 4 mps 758 mmHg 48%
    19:00 +12°C° 0 mm 3 mps 758 mmHg 53%
    20:00 +10°C° 0 mm 3 mps 758 mmHg 58%
    21:00 +8°C° 0 mm 3 mps 758 mmHg 63%
    22:00 +9°C° 0 mm 3 mps 758 mmHg 60%
    23:00 +9°C° 0 mm 3 mps 757 mmHg 57%

    29 May, Tuesday

    Time Temperature Precipitation Wind Pressure Humidity
    00:00 +10°C° 0 mm 3 mps 757 mmHg 54%
    01:00 +9°C° 0 mm 3 mps 757 mmHg 56%
    02:00 +8°C° 0 mm 4 mps 757 mmHg 58%
    03:00 +8°C° 0 mm 4 mps 756 mmHg 60%
    04:00 +10°C° 0 mm 4 mps 756 mmHg 61%
    05:00 +11°C° 0 mm 4 mps 756 mmHg 61%
    06:00 +12°C° 0 mm 5 mps 756 mmHg 62%
    07:00 +13°C° 0 mm 5 mps 756 mmHg 61%
    08:00 +14°C° 0 mm 6 mps 756 mmHg 59%
    09:00 +15°C° 0 mm 6 mps 755 mmHg 57%
    10:00 +16°C° 0 mm 6 mps 755 mmHg 54%
    11:00 +17°C° 0 mm 7 mps 755 mmHg 51%
    12:00 +18°C° 0 mm 7 mps 754 mmHg 48%
    13:00 +20°C° 0 mm 6 mps 754 mmHg 47%
    14:00 +21°C° 0 mm 6 mps 754 mmHg 46%
    15:00 +21°C° 0 mm 6 mps 753 mmHg 45%
    16:00 +20°C° 0 mm 5 mps 753 mmHg 50%
    17:00 +19°C° 0 mm 4 mps 752 mmHg 55%
    18:00 +18°C° 0 mm 4 mps 751 mmHg 60%
    19:00 +18°C° 0 mm 4 mps 751 mmHg 62%
    20:00 +18°C° 0 mm 4 mps 750 mmHg 65%
    21:00 +17°C° 0 mm 4 mps 749 mmHg 67%
    22:00 +17°C° 0.3 mm 4 mps 749 mmHg 69%
    23:00 +15°C° 0.3 mm 4 mps 748 mmHg 71%
    Show more